Location: Bennemühlen
(52.5740°N, 9.7135°E)
Time: 08:09:02
(UTC+00:00)

SR - All Passes

Search period start: 16 February 2026 00:00
Search period end: 26 February 2026 00:00
Orbit: 574 x 847 km, 66.7° (Epoch: 14 February)

Date Brightness Start Highest point End Pass type
(mag) Time Alt. Az. Time Alt. Az. Time Alt. Az.
16 Feb - 03:06:43 10° ESE 03:07:06 10° ESE 03:07:30 10° E visible
16 Feb - 04:43:34 10° SSW 04:47:47 68° SE 04:52:15 10° NE visible
16 Feb - 06:26:05 10° W 06:29:51 28° NNW 06:33:51 10° NNE daylight
16 Feb - 08:10:24 10° NW 08:13:02 15° N 08:15:46 10° NNE daylight
16 Feb - 09:53:10 10° NNW 09:56:30 19° NNE 09:59:59 10° ENE daylight
16 Feb - 11:34:34 10° NNW 11:39:15 47° NE 11:44:18 10° ESE daylight
16 Feb - 13:16:19 10° NW 13:20:56 40° WSW 13:25:53 10° S daylight
17 Feb - 03:49:16 10° S 03:53:03 32° ESE 03:57:01 10° NE visible
17 Feb - 05:30:26 10° WSW 05:34:34 45° NW 05:38:59 10° NNE visible
17 Feb - 07:14:22 10° WNW 07:17:23 17° NNW 07:20:33 10° NNE daylight
17 Feb - 08:58:04 10° NNW 09:00:52 15° N 09:03:47 10° NE daylight
17 Feb - 10:39:45 10° NNW 10:43:59 30° NNE 10:48:32 10° E daylight
17 Feb - 12:21:11 10° NW 12:26:06 75° SW 12:31:25 10° SSE daylight
17 Feb - 14:04:16 10° WNW 14:07:07 15° WSW 14:10:03 10° SW daylight
18 Feb - 02:55:58 10° SE 02:58:32 16° ESE 03:01:09 10° ENE visible
18 Feb - 04:35:13 10° SW 04:39:30 84° NW 04:44:03 10° NE visible
18 Feb - 06:18:18 10° W 06:21:51 23° NNW 06:25:34 10° NNE daylight
18 Feb - 08:02:34 10° NW 08:05:11 15° N 08:07:52 10° NNE daylight
18 Feb - 09:44:54 10° NNW 09:48:34 21° NNE 09:52:26 10° ENE daylight
18 Feb - 11:26:15 10° NW 11:31:06 62° NE 11:36:21 10° SE daylight
18 Feb - 13:08:16 10° WNW 13:12:33 29° WSW 13:17:06 10° S daylight
19 Feb - 03:40:34 10° SSW 03:44:39 47° ESE 03:48:58 10° NE visible
19 Feb - 05:22:28 10° WSW 05:26:27 34° NW 05:30:42 10° NNE visible
19 Feb - 07:06:40 10° NW 07:09:29 16° N 07:12:26 10° NNE daylight
19 Feb - 08:49:54 10° NNW 08:52:59 17° NNE 08:56:12 10° NE daylight
19 Feb - 10:31:25 10° NNW 10:35:56 38° NE 10:40:47 10° ESE daylight
19 Feb - 12:12:58 10° NW 12:17:49 54° WSW 12:23:01 10° SSE daylight
19 Feb - 13:58:03 10° W 13:58:35 10° WSW 13:59:06 10° WSW daylight
20 Feb - 02:46:39 10° SSE 02:50:01 23° ESE 02:53:31 10° ENE visible
20 Feb - 04:27:01 10° SW 04:31:16 60° NW 04:35:49 10° NE visible
20 Feb - 06:10:35 10° WNW 06:13:53 20° NNW 06:17:20 10° NNE daylight
20 Feb - 07:54:37 10° NNW 07:57:19 15° N 08:00:07 10° NE daylight
20 Feb - 09:36:34 10° NNW 09:40:35 25° NNE 09:44:51 10° E daylight
20 Feb - 11:17:57 10° NW 11:22:54 83° NE 11:28:15 10° SE daylight
20 Feb - 13:00:24 10° WNW 13:04:07 21° WSW 13:08:02 10° SSW daylight
21 Feb - 01:54:36 10° ESE 01:55:36 11° ESE 01:56:36 10° E visible
21 Feb - 03:32:03 10° SSW 03:36:18 70° SE 03:40:49 10° NE visible
21 Feb - 05:14:37 10° W 05:18:24 28° NNW 05:22:25 10° NNE visible
21 Feb - 06:58:55 10° NW 07:01:36 15° N 07:04:25 10° NNE daylight
21 Feb - 08:41:39 10° NNW 08:45:05 19° NNE 08:48:40 10° ENE daylight
21 Feb - 10:23:04 10° NNW 10:27:49 49° NE 10:32:56 10° ESE daylight
21 Feb - 12:04:50 10° NW 12:09:29 39° WSW 12:14:27 10° S daylight
22 Feb - 02:37:42 10° S 02:41:33 34° ESE 02:45:36 10° NE visible
22 Feb - 04:18:57 10° WSW 04:23:06 44° NW 04:27:32 10° NNE visible
22 Feb - 06:02:53 10° WNW 06:05:57 18° NNW 06:09:08 10° NNE daylight
22 Feb - 07:46:32 10° NNW 07:49:27 16° N 07:52:27 10° NE daylight
22 Feb - 09:28:14 10° NNW 09:32:33 31° NE 09:37:10 10° E daylight
22 Feb - 11:09:41 10° NW 11:14:39 73° SW 11:20:00 10° SSE daylight
22 Feb - 12:52:51 10° WNW 12:55:38 15° WSW 12:58:32 10° SW daylight
23 Feb - 01:44:20 10° SSE 01:47:01 16° ESE 01:49:48 10° ENE visible
23 Feb - 03:23:42 10° SW 03:28:00 82° NW 03:32:37 10° NE visible
23 Feb - 05:06:49 10° W 05:10:23 23° NNW 05:14:09 10° NNE visible
23 Feb - 06:51:03 10° NW 06:53:44 15° N 06:56:30 10° NE daylight
23 Feb - 08:33:21 10° NNW 08:37:07 22° NNE 08:41:06 10° ENE daylight
23 Feb - 10:14:44 10° NW 10:19:39 64° NE 10:24:57 10° SE daylight
23 Feb - 11:56:47 10° WNW 12:01:05 28° WSW 12:05:37 10° S daylight
24 Feb - 02:29:00 10° SSW 02:33:08 49° ESE 02:37:31 10° NE visible
24 Feb - 04:10:59 10° WSW 04:14:59 34° NW 04:19:15 10° NNE visible
24 Feb - 05:55:10 10° NW 05:58:02 16° N 06:01:01 10° NNE daylight
24 Feb - 07:38:21 10° NNW 07:41:32 17° NNE 07:44:52 10° ENE daylight
24 Feb - 09:19:53 10° NNW 09:24:29 39° NE 09:29:25 10° ESE daylight
24 Feb - 11:01:28 10° NW 11:06:21 53° WSW 11:11:35 10° SSE daylight
25 Feb - 01:35:03 10° SSE 01:38:29 24° ESE 01:42:05 10° ENE visible
25 Feb - 03:15:30 10° SW 03:19:46 59° NW 03:24:21 10° NE visible
25 Feb - 04:59:06 10° WNW 05:02:25 20° NNW 05:05:54 10° NNE visible
25 Feb - 06:43:05 10° NNW 06:45:52 15° N 06:48:45 10° NE daylight
25 Feb - 08:25:02 10° NNW 08:29:07 26° NNE 08:33:29 10° E daylight
25 Feb - 10:06:26 10° NW 10:11:26 86° NE 10:16:50 10° SE daylight
25 Feb - 11:48:55 10° WNW 11:52:39 20° WSW 11:56:32 10° SSW daylight
